TimeEDT,TemperatureF,Dew PointF,Humidity,Sea Level PressureIn,VisibilityMPH,Wind Direction,Wind SpeedMPH,Gust SpeedMPH,PrecipitationIn,Events,Conditions,WindDirDegrees,DateUTC
12:56 AM,79.0,72.0,79,30.05,10.0,SE,3.5,-,N/A,,Clear,130,2013-08-01 04:56:00
1:56 AM,79.0,73.0,82,30.03,10.0,SSE,3.5,-,N/A,,Mostly Cloudy,150,2013-08-01 05:56:00
2:33 AM,78.8,73.4,83,30.00,10.0,SE,4.6,-,N/A,,Mostly Cloudy,130,2013-08-01 06:33:00
2:56 AM,79.0,73.0,82,30.01,10.0,SSE,4.6,-,N/A,,Mostly Cloudy,150,2013-08-01 06:56:00
3:56 AM,79.0,73.9,84,30.00,10.0,SSE,4.6,-,N/A,,Mostly Cloudy,150,2013-08-01 07:56:00
4:56 AM,73.9,72.0,93,30.01,5.0,South,4.6,-,0.07,Rain,Rain,190,2013-08-01 08:56:00
5:53 AM,73.4,71.6,94,29.99,2.0,WSW,6.9,-,0.23,Rain,Heavy Rain,240,2013-08-01 09:53:00
5:56 AM,73.0,72.0,96,30.01,3.0,WSW,6.9,-,0.24,Rain,Rain,240,2013-08-01 09:56:00
6:56 AM,73.0,70.0,90,30.01,10.0,Calm,Calm,-,0.02,Rain,Light Rain,0,2013-08-01 10:56:00
7:56 AM,73.9,71.1,91,30.02,10.0,SE,3.5,-,0.03,,Mostly Cloudy,140,2013-08-01 11:56:00
8:56 AM,75.0,73.0,94,30.02,10.0,SSE,3.5,-,0.01,,Overcast,150,2013-08-01 12:56:00
9:56 AM,78.1,75.0,90,30.00,10.0,SSE,4.6,-,0.00,Rain,Light Rain,150,2013-08-01 13:56:00
10:05 AM,78.8,75.2,89,29.98,10.0,SSE,5.8,-,0.00,,Overcast,160,2013-08-01 14:05:00
10:56 AM,77.0,73.9,90,29.99,9.0,South,3.5,-,0.01,Rain,Light Rain,170,2013-08-01 14:56:00
11:56 AM,75.9,73.9,94,29.98,5.0,SE,3.5,-,0.07,Rain,Rain,140,2013-08-01 15:56:00
12:07 PM,75.2,73.4,94,29.96,6.0,SSE,3.5,-,0.01,Rain,Light Rain,150,2013-08-01 16:07:00
12:31 PM,77.0,73.4,89,29.96,10.0,SSE,3.5,-,0.02,Rain,Light Rain,160,2013-08-01 16:31:00
12:56 PM,77.0,75.0,94,29.97,10.0,SSE,4.6,-,0.02,Rain,Light Rain,150,2013-08-01 16:56:00
1:11 PM,77.0,73.4,89,29.96,10.0,SE,5.8,-,0.00,Rain,Light Rain,130,2013-08-01 17:11:00
1:27 PM,78.8,75.2,89,29.95,10.0,South,8.1,-,0.01,Rain,Light Rain,180,2013-08-01 17:27:00
1:49 PM,78.8,73.4,83,29.95,10.0,South,10.4,-,0.01,,Partly Cloudy,170,2013-08-01 17:49:00
1:56 PM,79.0,73.0,82,29.96,10.0,South,11.5,-,0.01,,Scattered Clouds,180,2013-08-01 17:56:00
2:14 PM,80.6,73.4,79,29.94,10.0,South,8.1,-,N/A,,Mostly Cloudy,180,2013-08-01 18:14:00
2:56 PM,81.0,73.0,77,29.93,10.0,SSW,12.7,-,N/A,,Mostly Cloudy,200,2013-08-01 18:56:00
3:29 PM,82.4,73.4,74,29.91,10.0,SSW,12.7,19.6,N/A,,Scattered Clouds,210,2013-08-01 19:29:00
3:56 PM,82.0,73.0,74,29.92,10.0,SW,13.8,19.6,N/A,,Mostly Cloudy,220,2013-08-01 19:56:00
4:08 PM,82.4,73.4,74,29.91,10.0,SSW,17.3,23.0,N/A,,Mostly Cloudy,210,2013-08-01 20:08:00
4:16 PM,82.4,73.4,74,29.90,10.0,SW,15.0,23.0,N/A,,Scattered Clouds,220,2013-08-01 20:16:00
4:56 PM,84.0,73.9,72,29.91,10.0,SW,13.8,21.9,N/A,,Partly Cloudy,220,2013-08-01 20:56:00
5:56 PM,82.0,73.9,76,29.91,10.0,SW,16.1,20.7,N/A,,Scattered Clouds,220,2013-08-01 21:56:00
6:56 PM,81.0,75.0,82,29.92,10.0,SW,10.4,21.9,N/A,,Clear,230,2013-08-01 22:56:00
7:56 PM,81.0,75.0,82,29.93,9.0,SW,10.4,-,N/A,,Clear,220,2013-08-01 23:56:00
8:56 PM,80.1,75.0,85,29.93,10.0,SW,11.5,-,N/A,,Clear,230,2013-08-02 00:56:00
9:56 PM,79.0,75.0,88,29.95,10.0,SW,10.4,-,N/A,,Clear,230,2013-08-02 01:56:00
10:56 PM,79.0,75.0,88,29.96,10.0,SW,11.5,-,N/A,,Clear,230,2013-08-02 02:56:00
11:56 PM,79.0,75.0,88,29.96,10.0,WSW,11.5,-,N/A,,Clear,240,2013-08-02 03:56:00